Terminal Aerodrome Forecast
Issued by NWS

Current Version | Previous Version | Graphics & Text | Print | Product List | Glossary On
Versions: 1 2 3 4 5 6 7 8 9 10 11 12 13 14 15 16 17 18 19 20 21 22 23 24 25 26 27 28
000
FTUS41 KILN 310100 AAA
TAFLUK
TAF AMD
KLUK 310125Z 3101/3124 21006KT P6SM SCT060
     FM310500 16005KT P6SM SCT028 BKN100
      TEMPO 3105/3107 5SM -SHRA OVC035
     FM311300 22010KT P6SM VCSH OVC018
     FM312100 27010KT P6SM BKN028=

USA.gov is the U.S. government's official web portal to all federal, state and local government web resources and services.